Weather in Voskresenskoye

Russia / Republic of Bashkortostan     53°07′22″N   56°08′31″E
temp.,
°C
wind,
m/s
gust,
m/s
humid.,
%
clouds,
%
prec.,
mm/h
press.,
hPa
HPBL,
m
28 february, sun
sun2823:00−7ese489697 0.9 1003236
02:00−6ese3896100 0.8 1001202
05:00−5ese2397100 1.7 1000120
08:00−5e2297100 1.3 99985
11:00−2e2297100 2.4 999151
14:000sse12100100 1.0 1000292
17:000wsw35100100 1.9 1001334
20:00−7wnw2497100 0.9 1005101
1 march, mon
mon123:00−9wnw239698 1.3 100865
02:00−12w129785 0.1 101021
05:00−13w119791 0.3 101220
08:00−14w119798 0.2 101420
11:00−11w119191 0.4 1016267
14:00−9w2289100 0.2 1016419
17:00−10wnw3391100 0.3 1017387
20:00−13nw129693 0.1 101920
2 march, tue
tue223:00−16nw119791 0.2 102020
02:00−18wnw119896 0.1 102020
05:00−19wsw119998 0.1 102020
08:00−21sw22100100 0.1 102020
11:00−19s2494100 0.1 1018273
14:00−15s4690100 0.0 1016415
17:00−15sse599199 0.0 1015462
20:00−16sse51193100 0.1 1013466
3 march, wed
wed323:00−14sse51194100 0.4 1011466
02:00−12sse51393100 0.3 1008434
05:00−9sse51292100 0.5 1005382
08:00−4s41197100 0.9 1003695
11:00−2ssw61094100 1.6 1001779
14:00−1ssw4896100 0.7 1000689
17:00−1wsw4797100 2.0 1000531
20:00−3wsw4897100 1.1 1000392
4 march, thu
thu423:00−6wnw4994100 2.1 1003359
02:00−8w499594 0.2 1004302
05:00−9wnw389696 0.4 1005267
08:00−9w269698 0.5 1007205
11:00−8nw589299 0.9 1009493
14:00−7nw5789100 0.1 1010723
17:00−7nw4788100 0.2 1012867
20:00−11w4994100 0.1 1014221